STARLINK-1246, 45235

Orbit data source: Space-Track

STARLINK-1246, 45235 is a payload satellite owned by SpaceX/Seattle (US) in LEO that was launched on Mon, 17 Feb 2020 UTC via an FALCON 9 launch vehicle from the Air Force Eastern Test Range (AFETR). Payload-class satellites include a variety of spacecraft equipped with specific instruments for various scientific and technological missions. These include communications satellites like Starlink; space stations such as the ISS; scientific satellites like the Hubble; Earth observation satellites from companies like Planet Labs, Umbra, and HawkEye 360; GPS; miniature CubeSats for education and research; and military/defense satellites.

Loading next visibility...
Identifier
45235, 2020-012BK
Orbit
LEO
Country
Flag of USUS
Related business
Manufacturer
SpaceX/Seattle
Mission
Operational Commercial Communications
Bus & Motor
STARLINK, Unknown motor
Mass
260 kg wet, ~248 kg dry
Launch date (UTC)
2020-02-17 (6 years ago)
Launch vehicle
FALCON 9
Launch site
Air Force Eastern Test Range (AFETR)
Object type
Payload
Rocket body
Debris
Shape & HBR
Box + 1 Pan, 10.1 m
Radar Cross Section
13.562 m², Large (>1 m²)

Expand to show TLE details & history
Last TLE update: 10 hours ago

TLE from 10 hours ago
0 STARLINK-1246
1 45235U 20012BK  26073.85154353  .00010398  00000-0  36284-3 0  9993
2 45235  53.1606  15.2702 0001402  80.6212 279.4947 15.30187472335769
Epoch: 2026-03-14T20:26Z
TLE epoch observation values (Epoch: 2026-03-14T20:26:13.360Z)
Latitude
-0.00007°
Longitude
-103.75231°
Altitude
475.994 km
Speed
7.629 km/s
True Right ascension
01h 01m 04s
True Declination
0° 00' 00"
Sunlit
Object was in daylight at epoch
Visualization orbit readout
Latitude
Unknown
Longitude
Unknown
Altitude
Unknown
Speed
Unknown
Apparent Right ascension
Unknown
Apparent Declination
Unknown
Sunlit
N/A
Visualization observer readout
Local Sidereal Time
10:31:14
Azimuth
Unknown
Elevation
Unknown
Doppler factor
Unknown
Orbital elements
Apogee altitude
476.47 km
Perigee altitude
474.548 km
Semi-major axis
6,853.646 km
Eccentricity
0.00014
Inclination
53.1606°
RAAN
15.2702°
Arg. of periapsis
80.6212°
True anomaly
279.47885°
Mean anomaly
279.4947°
Eccentric anomaly
279.48678°
Mean motion
3.82526 °/min
Orbital period
94.11 mins
BSTAR
0.00036284
Loading maneuver chart data...
Computing Atmospheric mass density...

Documentation

Showing up to 5 results
|